{"data":{"norad_id":63931,"epoch":"2026-05-25T03:23:49.109568Z","epoch_age_seconds":53047,"freshness":"FRESH","line1":"1 63931U 25098F   26145.14154062  .00003810  00000+0  32683-3 0  9993","line2":"2 63931  70.0010  81.7181 0002556 270.3108  89.7758 14.98338288 58020","mean_motion":14.98338288,"eccentricity":0.0002556,"inclination_deg":70.001,"raan_deg":81.7181,"arg_perigee_deg":270.3108,"mean_anomaly_deg":89.7758,"bstar":0.00032683,"rev_number":5802,"period_min":96.106467513563,"perigee_km":570.2537983543,"apogee_km":573.80672385818,"semimajor_km":6950.1672611062,"source":"CELESTRAK","updated_at":"2026-05-25T13:38:20.183429Z"}}